Hourly Data Report for September 03, 2017

All times are specified in Local Standard Time (LST). Add 1 hour to adjust for Daylight Saving Time where and when it is observed.

ST. STEPHEN
NEW BRUNSWICK

45°12'36.600" N
67°15'10.300" W
26.10 m
8104935
71607
WSS

Download Data

Hourly Data (September 2017)
Hourly Data Report for September 3, 2017
Temp Definition
°C
Dew Point Temp Definition
°C
Rel Hum Definition
%
Wind Dir Definition
10's deg

Wind Spd Definition
km/h
Visibility Definition
km
Stn Press Definition
kPa
Hmdx Definition


Wind Chill Definition


Weather Definition


TIME
00:00 7.6 6.5 93   0   101.96     LegendNANA
01:00 6.5 5.4 93 3 3   101.96     LegendNANA
02:00 6.2 5.3 94 3 2   101.95     LegendNANA
03:00 5.5 4.7 94 24 1   101.95     LegendNANA
04:00 5.2 4.5 95   0   101.93     LegendNANA
05:00 5.1 4.3 95   0   101.91     LegendNANA
06:00 4.6 4.0 96   0   101.94     LegendNANA
07:00 6.9 6.3 96   0   102.04     LegendNANA
08:00 10.0 9.3 95   0   102.05     LegendNANA
09:00 12.5 10.9 90 11 4   102.00     LegendNANA
10:00 14.2 11.3 82 10 5   101.93     LegendNANA
11:00 16.0 11.3 73 10 5   101.92     LegendNANA
12:00 17.1 8.8 58 15 11   101.84     LegendNANA
13:00 19.1 7.4 46 15 17   101.78     LegendNANA
14:00 18.7 8.5 52 13 14   101.68     LegendNANA
15:00 16.6 8.0 57 11 14   101.65     LegendNANA
16:00 15.8 9.1 64 12 11   101.52     LegendNANA
17:00 15.1 9.3 68 12 13   101.41     LegendNANA
18:00 14.8 9.7 71 9 10   101.28     LegendNANA
19:00 14.2 10.1 76 9 10   101.12     LegendNANA
20:00 14.2 9.9 76 10 14   100.99     LegendNANA
21:00 12.9 11.2 90 10 15   100.87     LegendNANA
22:00 12.5 11.6 95 9 14   100.67     LegendNANA
23:00 12.7 11.9 95 9 14   100.46     LegendNANA

Notes on Data Quality.

Legend

  • E = Estimated
  • M = Missing
  • NA = Not Available
  • ‡ = Partner data that is not subject to review by the National Climate Archives
Date modified: